Location: Newark
(43.4306°N, 0.3089°E)
Time: 07:33:58
(UTC+00:00)

S-56A Canister/Altair - Pass Details

Date: 27 August 2019
Orbit: 633 x 2499 km, 38.9° (Epoch: 15 October)

Event Time Altitude Azimuth Distance (km) Brightness Sun altitude
Rises 23:31:24 0° 271° (W) 2,972 - -36.3°
Reaches altitude 10° 23:33:56 10° 260° (W) 2,013 - -36.3°
Maximum altitude 23:37:47 29° 199° (SSW) 1,174 - -36.4°
Drops below altitude 10° 23:41:56 10° 139° (SE) 2,179 - -36.5°
Sets 23:44:48 0° 128° (SE) 3,267 - -36.6°
